Погода в Еникееве

Россия / Республика Марий Эл     56°23′49″N   46°26′06″E
темп.,
°C
ветер,
м/с
пор.,
м/с
влажн.,
%
обл.,
%
осадки,
мм/ч
давл.,
гПа
погр.,
м
24 мая, вт
вт2400:00+1з3692100 0.1 1001442
03:000ююз13100100 0.8 1001131
06:00+1з3797100 0.9 1001532
09:00+4з3472100 1.1 10021246
12:00+5з2464100 0.4 10041304
15:00+7зсз2355100 0.7 10051524
18:00+7з1260100 0.1 10061121
21:00+2сз228299 0.1 100834
25 мая, ср
ср2500:000сз22968 0.0 100822
03:00−1сз22976 0.0 100934
06:00+3сз258414 0.0 1009312
09:00+8сз356096 0.1 10091480
12:00+9сз4663100 0.7 10101592
15:00+9зсз455597 1.1 10101539
18:00+7зсз4782100 0.9 1010835
21:00+4з3896100 1.0 1011716
26 мая, чт
чт2600:00+5з4994100 1.1 1010833
03:00+4зюз399583 1.1 1011421
06:00+4зюз379292 0.1 1011297
09:00+9зюз4763100 0.1 10101344
12:00+11юз4657100 0.6 10091569
15:00+9юз3881100 1.6 10091243
18:00+10зюз388357 0.9 1007924
21:00+7юв2294100 1.1 100653
27 мая, пт
пт2700:00+8ююв2798100 0.7 1005243
03:00+9ююв3899100 1.0 1002380
06:00+9юв3999100 2.8 1000456
09:00+10ююв51197100 5.9 997670
12:00+11ю4996100 0.8 996641
15:00+10зюз61295100 2.9 997753
18:00+11зюз4993100 0.3 999715
21:00+9юз229795 0.3 100131
28 мая, сб
сб2800:00+9юз399990 0.0 1002294
03:00+9зюз4896100 0.1 1003399
06:00+10ююз379392 0.0 1003368
09:00+12ююз51080100 0.1 1003842
12:00+10ююв61595100 4.7 10011235
15:00+12ююз61395100 7.2 10001016
18:00+13юз510895 0.6 1001961
21:00+10юз3119447 1.4 1004434